TimeEDT,TemperatureF,Dew PointF,Humidity,Sea Level PressureIn,VisibilityMPH,Wind Direction,Wind SpeedMPH,Gust SpeedMPH,PrecipitationIn,Events,Conditions,WindDirDegrees,DateUTC
12:26 AM,44.6,41.0,87,30.02,10.0,WSW,4.6,-,N/A,,Overcast,250,2012-10-06 04:26:00
12:53 AM,44.1,41.0,89,30.02,10.0,SW,5.8,-,N/A,,Overcast,230,2012-10-06 04:53:00
1:53 AM,41.0,39.0,93,30.03,10.0,Variable,3.5,-,N/A,,Clear,0,2012-10-06 05:53:00
2:53 AM,41.0,37.9,89,30.03,10.0,WSW,3.5,-,N/A,,Clear,250,2012-10-06 06:53:00
3:53 AM,39.0,37.0,93,30.02,10.0,SW,3.5,-,N/A,,Clear,230,2012-10-06 07:53:00
4:53 AM,37.9,36.0,93,30.03,10.0,WSW,3.5,-,N/A,,Clear,240,2012-10-06 08:53:00
5:53 AM,37.0,35.1,93,30.03,10.0,SW,4.6,-,N/A,,Clear,230,2012-10-06 09:53:00
7:53 AM,37.0,33.1,86,30.07,10.0,WSW,3.5,-,N/A,,Clear,250,2012-10-06 11:53:00
8:53 AM,39.0,34.0,82,30.08,10.0,WSW,4.6,-,N/A,,Clear,250,2012-10-06 12:53:00
9:53 AM,43.0,36.0,76,30.09,10.0,WSW,5.8,-,N/A,,Partly Cloudy,250,2012-10-06 13:53:00
10:53 AM,48.0,36.0,63,30.10,10.0,Variable,5.8,-,N/A,,Clear,0,2012-10-06 14:53:00
11:53 AM,50.0,35.1,57,30.10,10.0,Variable,5.8,-,N/A,,Mostly Cloudy,0,2012-10-06 15:53:00
12:53 PM,48.9,34.0,56,30.10,10.0,Variable,6.9,-,N/A,,Overcast,0,2012-10-06 16:53:00
1:53 PM,50.0,33.1,52,30.10,10.0,WNW,12.7,18.4,N/A,,Overcast,300,2012-10-06 17:53:00
2:53 PM,51.1,32.0,48,30.09,10.0,Variable,5.8,-,N/A,,Overcast,0,2012-10-06 18:53:00
3:53 PM,50.0,32.0,50,30.10,10.0,WNW,12.7,19.6,N/A,,Overcast,300,2012-10-06 19:53:00
4:53 PM,48.0,32.0,54,30.11,10.0,WNW,8.1,-,N/A,,Overcast,300,2012-10-06 20:53:00
5:53 PM,48.0,33.1,56,30.12,10.0,Calm,Calm,-,N/A,,Overcast,0,2012-10-06 21:53:00
6:53 PM,46.9,33.1,59,30.13,10.0,Variable,3.5,-,N/A,,Overcast,0,2012-10-06 22:53:00
7:53 PM,46.0,34.0,63,30.15,10.0,Variable,4.6,-,N/A,,Overcast,0,2012-10-06 23:53:00
8:53 PM,45.0,34.0,65,30.17,10.0,Calm,Calm,-,N/A,,Overcast,0,2012-10-07 00:53:00
9:53 PM,45.0,34.0,65,30.16,10.0,Calm,Calm,-,N/A,,Overcast,0,2012-10-07 01:53:00
10:53 PM,44.1,36.0,73,30.16,10.0,Variable,3.5,-,N/A,,Overcast,0,2012-10-07 02:53:00
11:53 PM,44.1,36.0,73,30.16,10.0,Calm,Calm,-,N/A,,Overcast,0,2012-10-07 03:53:00